Погода в Нурабаде

Узбекистан     39°36′29″N   66°16′59″E
темп.,
°C
ветер,
м/с
пор.,
м/с
влажн.,
%
обл.,
%
осадки,
мм/ч
давл.,
гПа
погр.,
м
27 февраля, сб
сб2723:00−4ююз013236 0.0 103021
02:00−3зюз1126100 0.0 102885
05:00−2з1126100 0.0 1028106
08:00−2ююз2225100 0.0 1029165
11:00+2ююз462596 0.0 1029734
14:00+5юз67290 0.0 10271092
17:00+5юз45270 0.0 10271018
20:00+1ссв11380 0.0 102822
28 февраля, вс
вс2823:00+1всв34420 0.0 102734
02:000всв23460 0.0 102628
05:00+1св34470 0.0 102439
08:00+2св44480 0.0 102359
11:00+10ссв45320 0.0 1021462
14:00+13с32240 0.0 1019871
17:00+13ссв442810 0.0 1018522
20:00+8св453734 0.0 101942
1 марта, пн
пн123:00+7в124066 0.0 101922
02:00+5юв1142100 0.0 101922
05:00+4всв124098 0.0 101922
08:00+6всв223830 0.0 101922
11:00+15ююз362015 0.0 1018564
14:00+18юз811170 0.0 10171929
17:00+18юз59220 0.0 1017390
20:00+12ююз45300 0.0 101933
2 марта, вт
вт223:00+10ююв333310 0.0 102024
02:00+10ю123699 0.0 102022
05:00+10св233299 0.0 102022
08:00+11св4530100 0.0 102152
11:00+16с2225100 0.0 1021209
14:00+17з5524100 0.0 1020616
17:00+15зюз3429100 0.0 10191101
20:00+11зсз2353100 0.1 102178
3 марта, ср
ср323:00+10юв116199 0.1 102123
02:00+11в2353100 0.0 102131
05:00+10всв2357100 0.0 102032
08:00+11с1258100 0.0 102126
11:00+13з2444100 0.0 10201501
14:00+14юз2843100 0.0 10181687
17:00+14зюз343498 0.0 10171224
20:00+10ссз124694 0.0 101722